Aeroporto :
LOGIN :

Iscrizione | Disclaimer

   EN    FR    IT 

 










Sommario :    VFR   VFR Marginale   IFR   IFR Intensivo   IFR Molto Intensivo
Visibilità : 
Base nubi : 
>= 8 km
>= 3000ft
5 / 8 km
1000 / 3000 ft
1500m / 5 km
500 / 1000 ft
800 / 1500m
200 / 500 ft
< 800m
< 200 ft
Simboli :   Temporali  Nebbia  Neve Forte  Precipitazioni Forti  Vento > 20 kt
SIGMETs :   Varie  Temporali  Ghiacco  Turbolenza  Onda orograficha  Ceneri Vulcaniche







- Altitudine del aeroporto : 681 ft
- Codice IATA : LBA
- Carte del aeroporto


EGNM - Leeds Bradford

ULTIMO METAR :
  • 200120Z 26005KT CAVOK 09/07 Q1008

METARs OBSOLETI :
  • 200050Z 25007KT CAVOK 09/07 Q1008
  • 200020Z 24006KT CAVOK 10/07 Q1008
  • 192350Z 28004KT CAVOK 09/06 Q1008
  • 192320Z 29003KT CAVOK 09/06 Q1008
  • 192250Z 27006KT CAVOK 10/07 Q1008

TAF TAF EGNM
Valido dal 20 a 00 ore il 21 a 00 ore UTC


192302Z 2000/2024 26007KT 9999 FEW030
TEMPO 2004/2012 6000 SHRA BKN012
ATIS : +44 113 250 9696 (x2489)
Nessun NOTAM noto per questo aeroporto.



MetMap, La meteo Aeronautica in un colpo d'occhio ! - Copyright ORBIFLY Dicembre 2007 - Disclaimer

ORBIFLY MET'MAP TEAM :

Programmazione e sviluppo : Alexandra Zaïnal
Concezione e sviluppo : Baudouin d'Aumeries
Co-Programmazione e sviluppo : Marc-Olivier Méhu
Supporto tecnico e logistico : Manuel Goepfert
Aiuto per la traduzione : Arnaldo La Scala

Contatto : metmap@orbifly.com




FONTI E CREDITI :

   NOAA